カタログに戻る

STARLINK-6277

運用中通信VLEO
NORAD 56399·PAYLOAD·🇺🇸 United States

打ち上げ May 4, 2023 から Cape Canaveral Space Force Station

Loading…

次のパス (今後24時間)

TLE

最新Source: CelesTrak SupGP

元期: Sep 15, 2026, 01:58 UTC

1 56399C 23061AB  26258.08243056 -.00014244  00000+0 -51588-3 0  2589
2 56399  43.0026 197.2306 0001414 266.8275  50.1620 15.27589096    10

AllMySatでSTARLINK-6277をリアルタイム追跡

Download on the App Store